This demonstration page uses our WeatherBlox Daily Observations layout. Learn more.

Left ArrowRight Arrow

44.8408, -93.29828

Hourly Observations for May 22, 2016

Temp ( °F °C ) Dew Point ( °F °C ) Humidity (%) Winds ( mph kmh ) Pressure ( in mb ) Visibility ( mi km ) Precip ( " mm )
12:53 am 00:53 Clear 62 16.7 44 6.7 52 52 Calm 30.09 1019 10 16 0.00 0.00
1:53 am 01:53 Clear 63 17.2 42 5.6 47 47 Calm 30.06 1018 10 16 0.00 0.00
2:53 am 02:53 Clear 60 15.6 41 5 50 50 Calm 30.07 1018 10 16 0.00 0.00
3:53 am 03:53 Clear 58 14.4 42 5.6 56 56 Calm 30.08 1019 10 16 0.00 0.00
4:53 am 04:53 Clear 58 14.4 43 6.1 58 58 SSW 3 6 30.09 1019 10 16 0.00 0.00
5:53 am 05:53 Sunny 58 14.4 39 3.9 50 50 Calm 30.09 1019 10 16 0.00 0.00
6:53 am 06:53 Mostly Sunny 59 15 41 5 51 51 Calm 30.09 1019 10 16 0.00 0.00
7:53 am 07:53 Mostly Sunny 63 17.2 42 5.6 47 47 S 3 6 30.09 1019 10 16 0.00 0.00
8:53 am 08:53 Mostly Sunny 68 20 45 7.2 44 44 SSE 5 7 30.08 1019 10 16 0.00 0.00
9:53 am 09:53 Mostly Sunny 73 22.8 45 7.2 37 37 S 7 11 30.07 1018 10 16 0.00 0.00
10:53 am 10:53 Mostly Sunny 76 24.4 41 5 29 29 S 12 19 30.05 1018 10 16 0.00 0.00
11:53 am 11:53 Mostly Sunny 78 25.6 40 4.4 26 26 SSW 13 20 30.04 1017 10 16 0.00 0.00
12:53 pm 12:53 Partly Cloudy 80 26.7 37 2.8 21 21 SSW 14 22 30.01 1016 10 16 0.00 0.00
1:53 pm 13:53 Mostly Cloudy 82 27.8 38 3.3 21 21 S 9 15 29.99 1016 10 16 0.00 0.00
2:53 pm 14:53 Mostly Cloudy 83 28.3 37 2.8 19 19 S 16 26 29.96 1014 10 16 0.00 0.00
3:53 pm 15:53 Mostly Cloudy 84 28.9 34 1.1 17 17 SSE 16 26 29.93 1013 10 16 0.00 0.00
4:53 pm 16:53 Mostly Cloudy 84 28.9 34 1.1 17 17 SSW 16 26 29.89 1012 10 16 0.00 0.00
5:53 pm 17:53 Mostly Cloudy 84 28.9 34 1.1 17 17 SSW 10 17 29.87 1012 10 16 0.00 0.00
6:53 pm 18:53 Mostly Cloudy 83 28.3 35 1.7 18 18 S 14 22 29.85 1011 10 16 0.00 0.00
7:53 pm 19:53 Cloudy 81 27.2 36 2.2 20 20 S 10 17 29.84 1011 10 16 0.00 0.00
8:53 pm 20:53 Mostly Cloudy 75 23.9 39 3.9 27 27 SE 8 13 29.83 1010 10 16 0.00 0.00
9:53 pm 21:53 Mostly Cloudy 74 23.3 38 3.3 27 27 SSE 12 19 29.83 1010 10 16 0.00 0.00
10:53 pm 22:53 Partly Cloudy 73 22.8 38 3.3 28 28 S 12 19 29.83 1010 10 16 0.00 0.00
11:53 pm 23:53 Partly Cloudy 72 22.2 39 3.9 30 30 S 18 30 29.83 1010 10 16 0.00 0.00

Powered by AerisWeather